Hourly Weather Lucjanowo

Today, 15 May, Saturday

Time Temperature Precipitation Wind Pressure Humidity
00:00 +10°C° 0 mm 4 mps 743 mmHg 83%
01:00 +10°C° 0 mm 4 mps 744 mmHg 84%
02:00 +8°C° 0 mm 4 mps 744 mmHg 84%
03:00 +8°C° 0 mm 4 mps 744 mmHg 84%
04:00 +7°C° 0 mm 4 mps 744 mmHg 85%
05:00 +8°C° 0 mm 4 mps 744 mmHg 81%
06:00 +9°C° 0 mm 5 mps 745 mmHg 78%
07:00 +10°C° 0 mm 5 mps 745 mmHg 76%
08:00 +12°C° 0 mm 4 mps 745 mmHg 72%
09:00 +14°C° 0 mm 4 mps 745 mmHg 67%
10:00 +15°C° 0 mm 4 mps 745 mmHg 63%
11:00 +17°C° 0 mm 3 mps 745 mmHg 60%
12:00 +18°C° 0 mm 3 mps 745 mmHg 57%
13:00 +18°C° 0 mm 2 mps 745 mmHg 54%
14:00 +18°C° 0.1 mm 2 mps 744 mmHg 56%
15:00 +18°C° 0.1 mm 2 mps 744 mmHg 57%
16:00 +18°C° 0.1 mm 2 mps 744 mmHg 59%
17:00 +17°C° 0.2 mm 2 mps 744 mmHg 65%
18:00 +16°C° 0.2 mm 2 mps 744 mmHg 70%
19:00 +15°C° 0.2 mm 2 mps 743 mmHg 76%
20:00 +14°C° 0.4 mm 2 mps 743 mmHg 81%
21:00 +13°C° 0.4 mm 2 mps 743 mmHg 85%
22:00 +13°C° 0.4 mm 1 mps 743 mmHg 90%
23:00 +12°C° 0.2 mm 2 mps 743 mmHg 91%

Tomorrow, 16 May, Sunday

Time Temperature Precipitation Wind Pressure Humidity
00:00 +12°C° 0.2 mm 2 mps 743 mmHg 93%
01:00 +12°C° 0.2 mm 2 mps 743 mmHg 94%
02:00 +12°C° 0.2 mm 2 mps 743 mmHg 94%
03:00 +12°C° 0.2 mm 1 mps 743 mmHg 94%
04:00 +12°C° 0.2 mm 1 mps 743 mmHg 94%
05:00 +13°C° 0 mm 2 mps 743 mmHg 91%
06:00 +13°C° 0 mm 2 mps 743 mmHg 88%
07:00 +14°C° 0 mm 2 mps 743 mmHg 85%
08:00 +14°C° 0.4 mm 2 mps 743 mmHg 83%
09:00 +15°C° 0.4 mm 2 mps 743 mmHg 80%
10:00 +15°C° 0.4 mm 2 mps 743 mmHg 78%
11:00 +16°C° 0.6 mm 2 mps 743 mmHg 76%
12:00 +16°C° 0.6 mm 3 mps 743 mmHg 75%
13:00 +16°C° 0.6 mm 3 mps 743 mmHg 73%
14:00 +16°C° 0.3 mm 3 mps 742 mmHg 73%
15:00 +16°C° 0.3 mm 2 mps 742 mmHg 72%
16:00 +16°C° 0.3 mm 2 mps 742 mmHg 72%
17:00 +15°C° 0.1 mm 2 mps 742 mmHg 74%
18:00 +14°C° 0.1 mm 1 mps 742 mmHg 76%
19:00 +14°C° 0.1 mm 1 mps 742 mmHg 78%
20:00 +13°C° 0 mm 2 mps 742 mmHg 81%
21:00 +12°C° 0 mm 2 mps 742 mmHg 85%
22:00 +10°C° 0 mm 3 mps 742 mmHg 88%
23:00 +9°C° 0.1 mm 3 mps 742 mmHg 90%

Day after tomorrow, 17 May, Monday

Time Temperature Precipitation Wind Pressure Humidity
00:00 +9°C° 0.1 mm 3 mps 742 mmHg 92%
01:00 +8°C° 0.1 mm 3 mps 742 mmHg 94%
02:00 +8°C° 0 mm 3 mps 742 mmHg 94%
03:00 +8°C° 0 mm 3 mps 742 mmHg 94%
04:00 +8°C° 0 mm 3 mps 742 mmHg 94%
05:00 +9°C° 0.2 mm 3 mps 742 mmHg 93%
06:00 +10°C° 0.2 mm 3 mps 742 mmHg 92%
07:00 +11°C° 0.2 mm 3 mps 742 mmHg 91%
08:00 +12°C° 0.1 mm 3 mps 743 mmHg 87%
09:00 +13°C° 0.1 mm 4 mps 743 mmHg 83%
10:00 +13°C° 0.1 mm 5 mps 743 mmHg 78%
11:00 +14°C° 0.4 mm 5 mps 743 mmHg 78%
12:00 +14°C° 0.4 mm 4 mps 743 mmHg 78%
13:00 +14°C° 0.4 mm 4 mps 743 mmHg 78%
14:00 +14°C° 0.6 mm 4 mps 742 mmHg 80%
15:00 +13°C° 0.6 mm 4 mps 742 mmHg 82%
16:00 +13°C° 0.6 mm 3 mps 742 mmHg 84%
17:00 +13°C° 0.5 mm 3 mps 742 mmHg 85%
18:00 +12°C° 0.5 mm 3 mps 742 mmHg 86%
19:00 +13°C° 0.5 mm 2 mps 742 mmHg 87%
20:00 +12°C° 0.1 mm 2 mps 742 mmHg 89%
21:00 +10°C° 0.1 mm 3 mps 742 mmHg 91%
22:00 +9°C° 0.1 mm 3 mps 742 mmHg 93%
23:00 +9°C° 0 mm 3 mps 742 mmHg 94%

18 May, Tuesday

Time Temperature Precipitation Wind Pressure Humidity
00:00 +8°C° 0 mm 4 mps 742 mmHg 94%
01:00 +7°C° 0 mm 4 mps 742 mmHg 95%
02:00 +7°C° 0 mm 4 mps 742 mmHg 95%
03:00 +7°C° 0 mm 4 mps 742 mmHg 96%
04:00 +6°C° 0 mm 5 mps 743 mmHg 97%
05:00 +7°C° 0 mm 5 mps 743 mmHg 94%
06:00 +8°C° 0 mm 5 mps 743 mmHg 91%
07:00 +9°C° 0 mm 6 mps 743 mmHg 88%
08:00 +10°C° 0.1 mm 6 mps 743 mmHg 84%
09:00 +11°C° 0.1 mm 6 mps 743 mmHg 80%
10:00 +13°C° 0.1 mm 6 mps 743 mmHg 77%
11:00 +12°C° 0.4 mm 7 mps 743 mmHg 74%
12:00 +14°C° 0.4 mm 7 mps 743 mmHg 71%
13:00 +15°C° 0.4 mm 7 mps 743 mmHg 68%
14:00 +14°C° 0.3 mm 7 mps 744 mmHg 71%
15:00 +14°C° 0.3 mm 7 mps 744 mmHg 73%
16:00 +14°C° 0.3 mm 7 mps 744 mmHg 75%
17:00 +13°C° 0.2 mm 6 mps 744 mmHg 78%
18:00 +12°C° 0.2 mm 5 mps 745 mmHg 82%
19:00 +11°C° 0.2 mm 4 mps 745 mmHg 85%
20:00 +10°C° 0 mm 4 mps 745 mmHg 88%
21:00 +8°C° 0 mm 4 mps 745 mmHg 91%
22:00 +8°C° 0 mm 3 mps 746 mmHg 94%
23:00 +7°C° 0 mm 3 mps 746 mmHg 94%

19 May, Wednesday

Time Temperature Precipitation Wind Pressure Humidity
00:00 +6°C° 0 mm 4 mps 746 mmHg 95%
01:00 +6°C° 0 mm 4 mps 746 mmHg 95%
02:00 +6°C° 0 mm 4 mps 747 mmHg 96%
03:00 +5°C° 0 mm 4 mps 747 mmHg 96%
04:00 +5°C° 0 mm 4 mps 747 mmHg 96%
05:00 +6°C° 0 mm 4 mps 747 mmHg 91%
06:00 +8°C° 0 mm 5 mps 748 mmHg 86%
07:00 +9°C° 0 mm 5 mps 748 mmHg 82%
08:00 +10°C° 0.1 mm 6 mps 748 mmHg 77%
09:00 +11°C° 0.1 mm 6 mps 748 mmHg 73%
10:00 +11°C° 0.1 mm 6 mps 748 mmHg 69%
11:00 +13°C° 0.2 mm 6 mps 748 mmHg 65%
12:00 +13°C° 0.2 mm 6 mps 748 mmHg 61%
13:00 +14°C° 0.2 mm 6 mps 748 mmHg 57%
14:00 +14°C° 0 mm 6 mps 748 mmHg 58%
15:00 +14°C° 0 mm 5 mps 748 mmHg 59%
16:00 +14°C° 0 mm 5 mps 748 mmHg 60%
17:00 +13°C° 0 mm 4 mps 748 mmHg 65%
18:00 +11°C° 0 mm 4 mps 749 mmHg 71%
19:00 +10°C° 0 mm 3 mps 749 mmHg 76%
20:00 +9°C° 0 mm 3 mps 749 mmHg 80%
21:00 +8°C° 0 mm 3 mps 749 mmHg 84%
22:00 +7°C° 0 mm 3 mps 749 mmHg 88%
23:00 +7°C° 0 mm 3 mps 749 mmHg 89%

20 May, Thursday

Time Temperature Precipitation Wind Pressure Humidity
00:00 +7°C° 0 mm 3 mps 749 mmHg 91%
01:00 +5°C° 0 mm 3 mps 749 mmHg 93%
02:00 +5°C° 0 mm 4 mps 750 mmHg 93%
03:00 +6°C° 0 mm 4 mps 750 mmHg 93%
04:00 +6°C° 0 mm 4 mps 750 mmHg 93%
05:00 +7°C° 0 mm 5 mps 750 mmHg 90%
06:00 +8°C° 0 mm 5 mps 750 mmHg 87%
07:00 +9°C° 0 mm 5 mps 750 mmHg 83%
08:00 +10°C° 0.2 mm 5 mps 750 mmHg 80%
09:00 +10°C° 0.2 mm 6 mps 750 mmHg 76%
10:00 +11°C° 0.2 mm 6 mps 750 mmHg 72%
11:00 +13°C° 0.2 mm 6 mps 750 mmHg 67%
12:00 +14°C° 0.2 mm 6 mps 750 mmHg 62%
13:00 +14°C° 0.2 mm 6 mps 750 mmHg 57%
14:00 +14°C° 0.2 mm 5 mps 749 mmHg 58%
15:00 +15°C° 0.2 mm 5 mps 749 mmHg 59%
16:00 +15°C° 0.2 mm 5 mps 749 mmHg 60%
17:00 +13°C° 0.1 mm 4 mps 749 mmHg 67%
18:00 +12°C° 0.1 mm 4 mps 748 mmHg 75%
19:00 +11°C° 0.1 mm 3 mps 748 mmHg 82%
20:00 +10°C° 0 mm 3 mps 748 mmHg 84%
21:00 +10°C° 0 mm 3 mps 748 mmHg 85%
22:00 +9°C° 0 mm 3 mps 748 mmHg 87%
23:00 +9°C° 0 mm 3 mps 747 mmHg 87%
Show more

We Need Your Consent

Meteoprog and our Service Providers may store and access personal data such as cookies, device identifiers or other similar technologies on your device and process such data to personalise content and ads, as well as provide social media features and to analyse the traffic.

  • Store and/or access information on your device

    Cookies, device identifiers or other information can be stored or accessed on your device for the purposes indicated above.

  • Personalised ads and content, ad and content measurement, audience insights, and products development

    Ads and content can be personalised based on a profile. More data can be added to better personalise ads and content. Ad and content performance can be measured. Insights about the audience who saw the ads and content can be derived. Such data can be used to develop or improve user’s experience, systems and software.

By clicking ‘I Agree’ you will allow the use of indicated cookies, device identifiers, web beacons or other similar technologies. Your settings can be changed in the browser on your device.

For certain purposes, legitimate interests may be relied on, rather than consent. You can read more about this in our Privacy and Cookie Policy.